Location: *
(44.3683°N, 6.6958°E)
Time: 09:30:32
(UTC+00:00)

Meteor 1-16 Rocket - Pass Details

Date: 14 October 2019
Orbit: 790 x 908 km, 81.2° (Epoch: 12 November)

Event Time Altitude Azimuth Distance (km) Brightness Sun altitude
Rises 18:18:12 0° 192° (SSW) 3,431 7.5 -16.3°
Reaches altitude 10° 18:20:39 10° 194° (SSW) 2,480 6.7 -16.7°
Maximum altitude 18:26:16 78° 281° (W) 857 4.3 -17.7°
Drops below altitude 10° 18:31:46 10° 8° (N) 2,420 6.6 -18.7°
Sets 18:34:08 0° 10° (N) 3,341 7.3 -19.1°
